Date String (YYYY-MM-DD hh:mm:ss) UTC,Instrument flags,Ambient pressure (hPa),Sample flow (lpm),Bypass flow (lpm),Sample temperature (°C),Ambient temperature (°C),ASC tube jacket temperature (°C),LED temperature (°C),Box temperature (°C),Sample RH (%),Span deviation,Mass concentration (μg/m³),Mass concentration (μg/m³),Mass concentration (μg/m³)
DateTimeUTC,F1_M11,P_M11,Q1_M11,Q2_M11,T1_M11,T2_M11,T3_M11,T4_M11,T5_M11,U1_M11,ZSPAN_M11,X0_M11,X2_M11,X1_M11
2021-11-14 21:00:00,,0825.4,5.00,0.00,26.6,25.7,00.0,35.6,28.4,13.4,0000.0,0005.26,0001.30,0000.66
2021-11-14 21:01:00,,0825.4,5.00,0.00,26.6,25.7,00.0,35.6,28.4,13.4,0000.0,0005.38,0001.29,0000.66
2021-11-14 21:02:00,,0825.4,5.01,0.00,26.6,25.7,00.0,35.6,28.4,13.4,0000.0,0006.10,0001.38,0000.66
2021-11-14 21:03:00,,0825.5,4.98,0.00,26.6,25.7,00.0,35.6,28.4,13.4,0000.0,0006.39,0001.38,0000.64
2021-11-14 21:04:00,,0825.4,5.00,0.00,26.6,25.7,00.0,35.6,28.4,13.5,0000.0,0007.14,0001.35,0000.65
2021-11-14 21:05:00,,0825.5,5.01,0.00,26.6,25.6,00.0,35.6,28.4,13.5,0000.0,0007.22,0001.35,0000.64
2021-11-14 21:06:00,,0825.5,5.00,0.00,26.6,25.7,00.0,35.6,28.4,13.5,0000.0,0006.80,0001.36,0000.65
2021-11-14 21:07:00,,0825.5,5.00,0.00,26.6,25.7,00.0,35.6,28.4,13.5,0000.0,0006.51,0001.36,0000.65
2021-11-14 21:08:00,,0825.5,5.01,0.00,26.6,25.7,00.0,35.6,28.4,13.5,0000.0,0006.53,0001.37,0000.65
2021-11-14 21:09:00,,0825.5,4.99,0.00,26.6,25.7,00.0,35.6,28.5,13.4,0000.0,0006.74,0001.41,0000.66
2021-11-14 21:10:00,,0825.5,5.00,0.00,26.6,25.7,00.0,35.6,28.4,13.5,0000.0,0006.29,0001.42,0000.65
2021-11-14 21:11:00,,0825.5,5.00,0.00,26.6,25.7,00.0,35.6,28.4,13.5,0000.0,0005.86,0001.44,0000.65
2021-11-14 21:12:00,,0825.6,5.00,0.00,26.6,25.7,00.0,35.6,28.4,13.4,0000.0,0005.95,0001.47,0000.65
2021-11-14 21:13:00,,0825.5,4.99,0.00,26.6,25.7,00.0,35.6,28.4,13.5,0000.0,0005.04,0001.38,0000.65
2021-11-14 21:14:00,,0825.6,5.01,0.00,26.6,25.7,00.0,35.6,28.4,13.4,0000.0,0004.66,0001.26,0000.66
2021-11-14 21:15:00,,0825.5,5.00,0.00,26.6,25.7,00.0,35.6,28.4,13.4,0000.0,0003.94,0001.27,0000.67
2021-11-14 21:16:00,,0825.6,5.00,0.00,26.6,25.6,00.0,35.6,28.4,13.4,0000.0,0003.88,0001.26,0000.67
2021-11-14 21:17:00,,0825.5,4.99,0.00,26.6,25.7,00.0,35.6,28.4,13.4,0000.0,0003.47,0001.25,0000.67
2021-11-14 21:18:00,,0825.6,5.00,0.00,26.6,25.7,00.0,35.6,28.4,13.4,0000.0,0003.46,0001.29,0000.67
2021-11-14 21:19:00,,0825.6,5.01,0.00,26.6,25.7,00.0,35.6,28.4,13.4,0000.0,0004.70,0001.32,0000.67
2021-11-14 21:20:00,,0825.7,4.99,0.00,26.6,25.7,00.0,35.6,28.4,13.4,0000.0,0005.43,0001.32,0000.67
2021-11-14 21:21:00,,0825.7,5.00,0.00,26.6,25.7,00.0,35.6,28.3,13.4,0000.0,0005.29,0001.33,0000.68
2021-11-14 21:22:00,,0825.8,5.01,0.00,26.6,25.7,00.0,35.6,28.3,13.5,0000.0,0005.13,0001.31,0000.69
2021-11-14 21:23:00,,0825.9,5.01,0.00,26.6,25.7,00.0,35.6,28.3,13.5,0000.0,0005.02,0001.28,0000.69
2021-11-14 21:24:00,,0825.7,4.99,0.00,26.6,25.7,00.0,35.6,28.4,13.5,0000.0,0005.02,0001.29,0000.69
2021-11-14 21:25:00,,0825.8,5.00,0.00,26.6,25.7,00.0,35.6,28.4,13.5,0000.0,0005.11,0001.31,0000.70
2021-11-14 21:26:00,,0825.8,5.01,0.00,26.6,25.7,00.0,35.6,28.3,13.5,0000.0,0004.82,0001.30,0000.69
2021-11-14 21:27:00,,0825.8,4.99,0.00,26.6,25.7,00.0,35.6,28.4,13.5,0000.0,0004.64,0001.27,0000.69
2021-11-14 21:28:00,,0825.8,5.01,0.00,26.6,25.8,00.0,35.6,28.4,13.5,0000.0,0004.73,0001.28,0000.69
2021-11-14 21:29:00,,0825.8,5.00,0.00,26.6,25.7,00.0,35.6,28.4,13.5,0000.0,0004.32,0001.25,0000.69
2021-11-14 21:30:00,,0826.0,4.99,0.00,26.6,25.7,00.0,35.6,28.4,13.5,0000.0,0003.19,0001.24,0000.69
2021-11-14 21:31:00,,0825.7,5.00,0.00,26.6,25.8,00.0,35.6,28.4,13.5,0000.0,0002.18,0001.20,0000.68
2021-11-14 21:32:00,,0825.8,5.01,0.00,26.6,25.8,00.0,35.6,28.4,13.5,0000.0,0002.11,0001.16,0000.67
2021-11-14 21:33:00,,0825.9,5.01,0.00,26.6,25.8,00.0,35.6,28.4,13.6,0000.0,0002.08,0001.14,0000.66
2021-11-14 21:34:00,,0825.9,5.00,0.00,26.6,25.8,00.0,35.6,28.4,13.6,0000.0,0002.07,0001.14,0000.65
2021-11-14 21:35:00,,0825.9,5.00,0.00,26.6,25.8,00.0,35.6,28.4,13.6,0000.0,0002.12,0001.16,0000.65
2021-11-14 21:36:00,,0825.9,5.01,0.00,26.6,25.8,00.0,35.6,28.4,13.6,0000.0,0002.13,0001.13,0000.64
2021-11-14 21:37:00,,0825.9,5.01,0.00,26.7,25.8,00.0,35.6,28.4,13.6,0000.0,0002.21,0001.17,0000.63
2021-11-14 21:38:00,,0825.9,5.00,0.00,26.7,25.8,00.0,35.6,28.4,13.5,0000.0,0002.18,0001.18,0000.63
2021-11-14 21:39:00,,0825.9,5.00,0.00,26.7,25.8,00.0,35.7,28.5,13.5,0000.0,0002.89,0001.16,0000.63
2021-11-14 21:40:00,,0825.9,5.01,0.00,26.7,25.8,00.0,35.7,28.5,13.5,0000.0,0003.19,0001.14,0000.63
2021-11-14 21:41:00,,0825.8,4.99,0.00,26.7,25.8,00.0,35.7,28.5,13.5,0000.0,0003.14,0001.11,0000.62
2021-11-14 21:42:00,,0825.9,5.00,0.00,26.7,25.8,00.0,35.7,28.5,13.6,0000.0,0003.17,0001.12,0000.61
2021-11-14 21:43:00,,0826.0,5.00,0.00,26.7,25.8,00.0,35.7,28.5,13.6,0000.0,0003.20,0001.10,0000.61
2021-11-14 21:44:00,,0825.8,5.01,0.00,26.7,25.8,00.0,35.7,28.4,13.6,0000.0,0003.18,0001.08,0000.61
2021-11-14 21:45:00,,0825.8,5.01,0.00,26.7,25.8,00.0,35.7,28.4,13.6,0000.0,0003.06,0001.02,0000.61
2021-11-14 21:46:00,,0826.0,4.98,0.00,26.7,25.8,00.0,35.7,28.4,13.6,0000.0,0002.99,0000.99,0000.60
2021-11-14 21:47:00,,0825.7,5.00,0.00,26.7,25.8,00.0,35.7,28.4,13.6,0000.0,0003.00,0000.99,0000.59
2021-11-14 21:48:00,,0826.0,5.01,0.00,26.7,25.8,00.0,35.7,28.5,13.6,0000.0,0003.19,0001.02,0000.60
2021-11-14 21:49:00,,0825.8,4.99,0.00,26.7,25.8,00.0,35.7,28.5,13.6,0000.0,0003.31,0001.05,0000.60
2021-11-14 21:50:00,,0825.8,5.01,0.00,26.7,25.8,00.0,35.7,28.5,13.6,0000.0,0002.52,0001.06,0000.59
2021-11-14 21:51:00,,0825.9,4.99,0.00,26.7,25.8,00.0,35.7,28.5,13.6,0000.0,0002.19,0001.07,0000.60
2021-11-14 21:52:00,,0825.7,5.01,0.00,26.8,25.8,00.0,35.7,28.5,13.6,0000.0,0002.29,0001.10,0000.61
2021-11-14 21:53:00,,0825.7,5.00,0.00,26.8,25.9,00.0,35.7,28.5,13.6,0000.0,0003.74,0001.07,0000.60
2021-11-14 21:54:00,,0825.8,5.00,0.00,26.8,25.8,00.0,35.7,28.5,13.6,0000.0,0004.02,0001.05,0000.60
2021-11-14 21:55:00,,0825.7,5.00,0.00,26.8,25.8,00.0,35.7,28.5,13.6,0000.0,0003.99,0001.04,0000.60
2021-11-14 21:56:00,,0825.8,5.00,0.00,26.8,25.8,00.0,35.7,28.5,13.6,0000.0,0004.00,0001.05,0000.59
2021-11-14 21:57:00,,0825.7,5.00,0.00,26.8,25.8,00.0,35.7,28.5,13.6,0000.0,0003.98,0001.04,0000.59
2021-11-14 21:58:00,,0825.8,4.99,0.00,26.8,25.8,00.0,35.7,28.5,13.6,0000.0,0003.91,0001.02,0000.58
2021-11-14 21:59:00,,0825.8,4.99,0.00,26.8,25.8,00.0,35.8,28.5,13.6,0000.0,0003.67,0000.97,0000.56
